Regional Weather Roundup
Issued by NWS

Home | Current Version | Previous Version | Text Only | Print | Product List | Glossary On
Versions: 1 2 3 4 5 6 7 8 9 10 11 12 13 14 15 16 17 18 19 20 21 22 23 24 25 26 27 28 29 30 31 32 33 34 35 36 37 38 39 40 41 42 43 44 45 46 47 48 49 50
000
ASUS43 KTOP 201108
RWRKS

WEATHER ROUNDUP FOR KANSAS
NATIONAL WEATHER SERVICE GOODLAND KS
600 AM CDT SUN MAY 20 2018

NOTE:  "FAIR" INDICATES FEW OR NO CLOUDS BELOW 12,000 FEET WITH NO
SIGNIFICANT WEATHER AND/OR OBSTRUCTIONS TO VISIBILITY.

KSZ001>006-013>018-027>032-041>047-201200-
NORTHWEST KANSAS

CITY           SKY/WX    TMP DP  RH WIND       PRES   REMARKS
GOODLAND       CLOUDY    45  43  93 NW12      30.21R
HAYS           CLOUDY    52  50  93 NW10      30.11S
HILL CITY      CLOUDY    51  50  96 NW10      30.14S
RUSSELL        CLOUDY    51  51 100 NW7       30.10R
$$

KSZ061>065-074>080-084>089-201200-
SOUTHWEST KANSAS

CITY           SKY/WX    TMP DP  RH WIND       PRES   REMARKS
DODGE CITY     MOCLDY    49  45  86 N15G26    30.12F
ELKHART        CLOUDY    50  45  81 N17G25    30.20R
GARDEN CITY    MOCLDY    47  44  90 N9        30.17R
GREAT BEND     CLOUDY    52  48  87 NW13      30.11R
LIBERAL        CLOUDY    49  44  83 N23       30.16S
PRATT          CLOUDY    52  47  85 N17       30.07F
$$

KSZ066>073-081>083-090>101-201200-
SOUTHEAST KANSAS

CITY           SKY/WX    TMP DP  RH WIND       PRES   REMARKS
CHANUTE        LGT RAIN  65  63  93 S10       30.03R
COFFEYVILLE    HVY RAIN  65  64  97 SE8       30.09R FOG
HUTCHINSON     CLOUDY    56  54  93 NW13      30.06R
MEDICINE LODGE   N/A     54  50  86 N15G24      N/A
NEWTON         CLOUDY    58  55  90 N15       30.06R
PARSONS        TSTM      65  64  97 SE7       30.09R
WICHITA INTL   CLOUDY    59  57  93 N14       30.05R
WICHITA JABRA  CLOUDY    59  58  96 N10       30.05R
WICHITA MCCONL CLOUDY    60  56  86 N12       30.05
WINFIELD       LGT RAIN  63  62  97 N5        30.05R
$$

KSZ007>012-019>026-033>040-048>060-102>105-201200-
NORTHEAST KANSAS

CITY           SKY/WX    TMP DP  RH WIND       PRES   REMARKS
CONCORDIA      CLOUDY    55  52  89 NW7       30.06R
EMPORIA        CLOUDY    61  58  90 NW10      30.02R
LAWRENCE       CLOUDY    64  63  96 CALM      30.00R
MANHATTAN      CLOUDY    59  55  87 VRB5      30.05R
MARYSVILLE     CLOUDY    55  55 100 N5        30.06R
OLATHE IND     CLOUDY    65  63  93 CALM      30.02R
OLATHE EXE     CLOUDY    63  62  97 CALM      30.01R
SALINA         CLOUDY    58  55  90 NW13      30.06R
TOPEKA BILLARD CLOUDY    64  62  93 N3        30.02R
TOPEKA FORBES  CLOUDY    64  61  90 N8        30.01R
$$




USA.gov is the U.S. government's official web portal to all federal, state and local government web resources and services.